User: anonymous   Login
Location: Unspecified
(0.0000°N, 0.0000°E)
Time: 12:34:53
(UTC+00:00)
Language:

USA-167 - Orbit

View from above orbital plane
View from above orbital plane
View from above satellite
View from above satellite

Ground track
Ground track

The orbit data is extracted from the following two-line orbital elements,

1 27691U 03008A   19110.60071201 +.00000042 +00000-0 +00000-0 0  9991
2 27691 005.8634 061.0829 0004381 325.8037 267.6786 01.00273585006732
Epoch (UTC): 20 April 2019 14:25:01
Eccentricity: 0.0004381
inclination: 5.8634°
perigee height: 35767 km
apogee height: 35804 km
right ascension of ascending node: 61.0829°
argument of perigee: 325.8037°
revolutions per day: 1.00273585
mean anomaly at epoch: 267.6786°
orbit number at epoch: 673

The dashed part of the orbit path shows where the satellite is in the earth's shadow,  

DLR